Kiripotib Landing Site

Jump to: basic info | weather | comments

Related pages: nearby airports | nearby navaids

Basic information (top)

Location: lon -23.328300, lat 17.946400, elev 4,475 ft / 1,364 m msl
Status: small_airport

Weather (top)

Current conditions for Hosea Kutako International Airport 57nm (106km) NNW (rec'd 2015/03/29 10:00Z):

FYWH 291000Z 03004G15KT 9999 FEW025CB SCT030TCU 23/13 Q1022 NOSIG

Airport forecast for Hosea Kutako International Airport 57nm (106km) NNW (rec'd 2015/03/29 06:00Z):

TAF FYWH 290456Z 2906/3012 26003KT 9999 SCT020 
      BECMG 2909/2911 SCT035TCU 
      TEMPO 2912/2917 34006KT -TSRA FEW025CB 
      TEMPO 2921/3003 14005KT CAVOK 
      BECMG 3010/3012 9999 SCT040TCU

Latest comments (top)

More details: Once can also land in the nearby salt ... [read]

Kiripotib Landing Strip Details: GPS location: S 23° 19' 50'' E 17° ... [read]

More... (top)

See also NOTAMs and nearby airports and navaids, or visit the Kiripotib Landing Site page at the main OurAirports website..